TimeCDT,TemperatureF,Dew PointF,Humidity,Sea Level PressureIn,VisibilityMPH,Wind Direction,Wind SpeedMPH,Gust SpeedMPH,PrecipitationIn,Events,Conditions,WindDirDegrees,DateUTC
12:53 AM,60.1,52.0,75,29.95,10.0,West,8.1,-,N/A,,Clear,260,2013-05-05 05:53:00
1:53 AM,59.0,52.0,78,29.96,10.0,NW,8.1,-,N/A,,Clear,320,2013-05-05 06:53:00
2:53 AM,55.9,45.0,67,29.95,10.0,North,3.5,-,N/A,,Clear,10,2013-05-05 07:53:00
3:53 AM,50.0,45.0,83,29.96,10.0,North,5.8,-,N/A,,Clear,350,2013-05-05 08:53:00
4:53 AM,52.0,43.0,71,29.97,10.0,NNW,5.8,-,N/A,,Clear,340,2013-05-05 09:53:00
5:53 AM,51.1,43.0,74,29.99,10.0,North,5.8,-,N/A,,Clear,360,2013-05-05 10:53:00
6:53 AM,50.0,43.0,77,30.02,10.0,North,5.8,-,N/A,,Clear,10,2013-05-05 11:53:00
7:53 AM,53.1,42.1,66,30.05,10.0,North,9.2,-,N/A,,Clear,10,2013-05-05 12:53:00
8:53 AM,55.9,41.0,57,30.06,10.0,North,12.7,-,N/A,,Clear,350,2013-05-05 13:53:00
9:53 AM,59.0,41.0,51,30.06,10.0,North,12.7,-,N/A,,Clear,360,2013-05-05 14:53:00
10:53 AM,62.1,43.0,50,30.06,10.0,NW,11.5,20.7,N/A,,Clear,320,2013-05-05 15:53:00
11:53 AM,64.9,41.0,42,30.06,10.0,WNW,13.8,19.6,N/A,,Clear,300,2013-05-05 16:53:00
12:53 PM,66.2,42.8,43,30.05,10.0,NNW,13.8,18.4,N/A,,Clear,330,2013-05-05 17:53:00
1:53 PM,68.0,42.1,39,30.03,10.0,NW,11.5,-,N/A,,Clear,320,2013-05-05 18:53:00
2:53 PM,69.1,43.0,39,30.02,10.0,NNW,15.0,23.0,N/A,,Clear,340,2013-05-05 19:53:00
3:53 PM,70.0,42.1,36,30.00,10.0,NNW,17.3,23.0,N/A,,Clear,330,2013-05-05 20:53:00
4:53 PM,70.0,42.1,36,29.99,10.0,NW,15.0,20.7,N/A,,Clear,320,2013-05-05 21:53:00
5:53 PM,69.1,42.1,38,29.99,10.0,NNW,10.4,-,N/A,,Clear,340,2013-05-05 22:53:00
6:53 PM,66.9,42.1,40,30.00,10.0,NNW,6.9,-,N/A,,Clear,340,2013-05-05 23:53:00
7:53 PM,63.0,43.0,48,30.02,10.0,North,6.9,-,N/A,,Clear,10,2013-05-06 00:53:00
8:53 PM,59.0,45.0,60,30.05,10.0,North,4.6,-,N/A,,Clear,10,2013-05-06 01:53:00
9:53 PM,55.0,46.0,72,30.06,10.0,NNE,3.5,-,N/A,,Clear,30,2013-05-06 02:53:00
10:53 PM,53.1,46.9,80,30.07,10.0,Calm,Calm,-,N/A,,Clear,0,2013-05-06 03:53:00
11:53 PM,52.0,48.9,89,30.08,10.0,Calm,Calm,-,N/A,,Clear,0,2013-05-06 04:53:00